Regional Weather Roundup
Issued by NWS Charleston, SC

Current Version | Previous Version | Text Only | Print | Product List | Glossary Off
Versions: 1 2 3 4 5 6 7 8 9 10 11 12 13 14 15 16 17 18 19 20 21 22 23 24 25 26 27 28 29 30 31 32 33 34 35 36 37 38 39 40 41 42 43 44 45 46 47 48 49 50

000
ASUS42 KCHS 101927
RWRCHS

REGIONAL WEATHER ROUNDUP
NATIONAL WEATHER SERVICE CHARLESTON SC
200 PM EST SAT DEC 10 2016

NOTE: "FAIR" INDICATES FEW OR NO CLOUDS BELOW 12,000 FEET WITH NO
SIGNIFICANT WEATHER AND/OR OBSTRUCTIONS TO VISIBILITY.

NOT ALL STATIONS ARE QUALITY CONTROLLED. USE DATA WITH CAUTION...
ESPECIALLY DEWPOINT OBSERVATIONS.

SCZ027-030-031-034>040-042>050-102000-
...SOUTHEAST SOUTH CAROLINA...

CITY           SKY/WX    TMP DP  RH WIND       PRES   REMARKS
N CHARLESTON   SUNNY     52  17  25 VRB5      30.48F
WATERFRONT PRK   N/A     50  28  42 NE6       30.48F
MOUNT PLEASANT FAIR      50  18  27 NE6       30.48S
JOHNS ISLAND   FAIR      52  21  30 N9        30.48S
PINOPOLIS        N/A     43  25  49 N5        30.43F
MONCKS CORNER  FAIR      46  19  34 N3        30.49F
SUMMERVILLE    FAIR      48  23  37 NE3       30.49F
BEAUFORT MCAS  SUNNY     52  20  28 VRB5      30.48F
BEAUFORT ARPT  FAIR      50  23  34 NE8       30.47F
HILTON HEAD IS SUNNY     55  28  35 N10       30.49
WALTERBORO     CLEAR     52  18  25 N5        30.48F
ALLENDALE      FAIR      48  19  32 CALM      30.47F

...SOUTHERN MIDLANDS AND PEE DEE...

CITY           SKY/WX    TMP DP  RH WIND       PRES   REMARKS
GEORGETOWN     NOT AVBL
KINGSTREE      FAIR      45  19  36 NW3       30.50F
ORANGEBURG     SUNNY     46  19  34 E3        30.49F
BARNWELL       NOT AVBL
AIKEN          FAIR      45  19  36 NE5       30.50F
MANNING        FAIR      45  19  36 N6        30.49F
COLUMBIA       SUNNY     46  17  31 E6        30.49F
SUMTER         SUNNY     45  17  33 CALM      30.47F
FLORENCE       SUNNY     45  17  32 VRB3      30.50F
MYRTLE BEACH   SUNNY     46  16  29 N13       30.52F
N MYRTLE BEACH SUNNY     46  18  32 VRB6      30.49F

$$

GAZ063-065-086>088-099>101-113>116-118-119-134>141-150-102000-
...SOUTHEAST GEORGIA...

CITY           SKY/WX    TMP DP  RH WIND       PRES   REMARKS
SAVANNAH ARPT  SUNNY     54  20  26 N7        30.46F
HUNTER AAF     SUNNY     54  30  40 NE8       30.43F
FORT STEWART   SUNNY     54  22  29 NE6       30.43F
STATESBORO     SUNNY     52  19  27 NE3       30.46F
SYLVANIA       CLEAR    N/A N/A N/A E7        30.48S
CLAXTON        FAIR      53  24  32 N5        30.46F

...CSRA...CENTRAL AND FAR SOUTHEAST GEORGIA...

CITY           SKY/WX    TMP DP  RH WIND       PRES   REMARKS
THOMSON        SUNNY     49  25  38 CALM      30.51F
AUGUSTA-BUSH   SUNNY     50  19  29 VRB6      30.48F
AUGUSTA-DANIEL SUNNY     49  17  28 N7        30.48F
SWAINSBORO     FAIR      50  18  27 E3        30.47F
VIDALIA        SUNNY     54  28  37 NE5       30.45F
EASTMAN        FAIR      54 -20   4 NE3       30.47F
HAZLEHURST     FAIR      54  19  25 E5        30.43F
ALMA           SUNNY     55  17  22 VRB5      30.43F
WAYCROSS       SUNNY     59  26  28 NE6       30.42F
JESUP          FAIR      57  34  41 CALM      30.43F
BAXLEY         FAIR      55  27  33 NE8       30.43F
BRUNSWICK      MOSUNNY   55  45  67 NE10      30.43F
SAINT SIMONS   MOSUNNY   55  42  61 N16G24    30.43F

$$

SCZ027-028-034-036>038-045-046-048>050-GAZ119-141-102000-
...LAKE AND SUPPLEMENTAL COASTAL OBSERVATIONS...

STATION/POSITION TIME  TEMP    WIND        PRES    WAVE   SWELL
                       AIR SEA DIR/SP/G            HT/PER HT/PER/DIR
                 (UTC) (F)     (DEG/KT/KT) (MB)    (FT/S) (FT/S/D)
WINYAH BAY       1830   45      10/  4     1032.0F
LAKE MURRAY      1920   45     180/  5/  7 1031.5F
ACE BASIN NERRS  1845   51      20/  3     1032.0F
FORT PULASKI     1900   49 59   60/  9/ 12 1031.8
SAPELO ISLAND    1900   54      40/ 13     1031.0

$$

ANZ835-935-AMZ111-154-330-350-352-354-370-450-454-472-102000-
...C-MAN AND BUOY OBSERVATIONS...

STATION/POSITION TIME  TEMP    WIND        PRES    WAVE   SWELL
                       AIR SEA DIR/SP/G            HT/PER HT/PER/DIR
                 (UTC) (F)     (DEG/KT/KT) (MB)    (FT/S) (FT/S/D)
BUOY 41004       1850   50 73   10/ 12/ 21 1031.2F   3/ 5   2/ 60/ 8
BUOY 41008       1850   53 62   30/ 19/ 23 1029.9F   4/ 5   2/ 90/ 8
FOLLY BEACH CMAN 1900   47      70/  8/ 10 1032.5F
CAPERS NEARSHORE 1908   46 59   50/ 10/ 14 1031.8F
FRIPP NEARSHORE  1908   48 60   40/ 12/ 16 1031.5F


STATION/POSITION TIME  TEMP    WIND        PRES    WAVE   SWELL
                       AIR SEA DIR/SP/G            HT/PER HT/PER/DIR
                 (UTC) (F)     (DEG/KT/KT) (MB)    (FT/S) (FT/S/D)
5E ST. MARYS GA  1900      64                N/A     4/ 6
FRYING PAN BUOY  1910   46 72  350/ 10/ 16 1031.8
BUOY 41025       1850   43 77  340/ 12/ 16 1031.2    4/ 8   3/ 40/ 8
CAPE LOOKOUT NC  1900   42     320/  6/  8 1031.7F
BUOY 41002       1850   60 73   10/  8/ 12 1027.8F   4/ 9   5/ 40/ 9
BUOY 41010       NOT AVBL
ST AUGUSTINE FL  1900   59 63  360/ 22/ 24 1028.7F


$$



USA.gov is the U.S. government's official web portal to all federal, state and local government web resources and services.